Location: *
(45.5667°S, 177.5167°W)
Time: 15:49:55
(UTC+00:00)

Cosmos 1727 Rocket - Pass Details

Date: 29 May 2022
Orbit: 961 x 996 km, 82.9° (Epoch: 28 June)

Event Time Altitude Azimuth Distance (km) Brightness Sun altitude
Rises 05:00:33 0° 355° (N) 3,665 7.4 -7.5°
Reaches altitude 10° 05:03:03 10° 355° (N) 2,720 6.7 -7.9°
Maximum altitude 05:09:18 88° 81° (E) 985 4.0 -8.9°
Drops below altitude 10° 05:15:35 10° 171° (S) 2,736 6.1 -10.0°
Sets 05:18:07 0° 171° (S) 3,687 6.7 -10.4°
